• In Austria
  • List of Countries
  • For 7 days
  • Water Temperature
  • Satellite Maps
  • Weather Map
  • News
  • Weather Widgets
  • user-avatar
    Login

    Hourly Weather Sidi Bu-l-Abbas

    Today, 18 December, Monday

    Time Temperature Precipitation Wind Pressure Humidity
    00:00 +7°C° 0 mm 1 mps 729 mmHg 83%
    01:00 +7°C° 0 mm 1 mps 729 mmHg 84%
    02:00 +6°C° 0 mm 1 mps 728 mmHg 85%
    03:00 +6°C° 0 mm 1 mps 728 mmHg 86%
    04:00 +6°C° 0 mm 1 mps 728 mmHg 86%
    05:00 +6°C° 0 mm 1 mps 728 mmHg 86%
    06:00 +5°C° 0 mm 1 mps 728 mmHg 87%
    07:00 +7°C° 0 mm 1 mps 729 mmHg 80%
    08:00 +8°C° 0 mm 1 mps 729 mmHg 73%
    09:00 +9°C° 0 mm 1 mps 729 mmHg 66%
    10:00 +10°C° 0 mm 1 mps 729 mmHg 60%
    11:00 +11°C° 0 mm 1 mps 729 mmHg 54%
    12:00 +11°C° 0 mm 0 mps 729 mmHg 48%
    13:00 +12°C° 0 mm 1 mps 728 mmHg 46%
    14:00 +12°C° 0 mm 1 mps 728 mmHg 45%
    15:00 +13°C° 0 mm 2 mps 727 mmHg 44%
    16:00 +11°C° 0 mm 1 mps 727 mmHg 50%
    17:00 +10°C° 0 mm 1 mps 727 mmHg 57%
    18:00 +9°C° 0 mm 1 mps 727 mmHg 63%
    19:00 +9°C° 0 mm 1 mps 727 mmHg 64%
    20:00 +8°C° 0 mm 1 mps 726 mmHg 66%
    21:00 +8°C° 0 mm 1 mps 726 mmHg 67%
    22:00 +8°C° 0 mm 1 mps 726 mmHg 68%
    23:00 +8°C° 0 mm 1 mps 726 mmHg 68%

    Tomorrow, 19 December, Tuesday

    Time Temperature Precipitation Wind Pressure Humidity
    00:00 +6°C° 0 mm 2 mps 725 mmHg 68%
    01:00 +6°C° 0 mm 2 mps 725 mmHg 68%
    02:00 +6°C° 0 mm 2 mps 725 mmHg 68%
    03:00 +6°C° 0 mm 2 mps 724 mmHg 68%
    04:00 +5°C° 0 mm 3 mps 724 mmHg 66%
    05:00 +7°C° 0 mm 3 mps 724 mmHg 64%
    06:00 +7°C° 0 mm 3 mps 724 mmHg 62%
    07:00 +7°C° 0.2 mm 3 mps 724 mmHg 61%
    08:00 +8°C° 0.2 mm 3 mps 725 mmHg 60%
    09:00 +8°C° 0.2 mm 4 mps 725 mmHg 59%
    10:00 +8°C° 0.6 mm 4 mps 725 mmHg 65%
    11:00 +8°C° 0.6 mm 4 mps 725 mmHg 71%
    12:00 +8°C° 0.6 mm 5 mps 725 mmHg 76%
    13:00 +8°C° 0.5 mm 5 mps 725 mmHg 77%
    14:00 +8°C° 0.5 mm 5 mps 725 mmHg 79%
    15:00 +10°C° 0.5 mm 4 mps 725 mmHg 80%
    16:00 +8°C° 0.2 mm 4 mps 725 mmHg 81%
    17:00 +8°C° 0.2 mm 4 mps 725 mmHg 82%
    18:00 +7°C° 0.2 mm 4 mps 726 mmHg 83%
    19:00 +7°C° 0.3 mm 4 mps 726 mmHg 84%
    20:00 +7°C° 0.3 mm 4 mps 727 mmHg 86%
    21:00 +8°C° 0.3 mm 3 mps 727 mmHg 88%
    22:00 +8°C° 0.2 mm 3 mps 727 mmHg 89%
    23:00 +7°C° 0.2 mm 3 mps 727 mmHg 89%

    Day after tomorrow, 20 December, Wednesday

    Time Temperature Precipitation Wind Pressure Humidity
    00:00 +7°C° 0.2 mm 3 mps 727 mmHg 90%
    01:00 +7°C° 0.2 mm 3 mps 727 mmHg 90%
    02:00 +7°C° 0.2 mm 3 mps 727 mmHg 91%
    03:00 +7°C° 0.2 mm 3 mps 727 mmHg 91%
    04:00 +7°C° 0.2 mm 2 mps 727 mmHg 91%
    05:00 +7°C° 0.2 mm 2 mps 727 mmHg 92%
    06:00 +7°C° 0.2 mm 2 mps 727 mmHg 92%
    07:00 +7°C° 0.1 mm 2 mps 728 mmHg 89%
    08:00 +8°C° 0.1 mm 2 mps 728 mmHg 85%
    09:00 +9°C° 0.1 mm 2 mps 729 mmHg 82%
    10:00 +10°C° 0 mm 2 mps 729 mmHg 75%
    11:00 +12°C° 0 mm 2 mps 729 mmHg 68%
    12:00 +12°C° 0 mm 2 mps 729 mmHg 61%
    13:00 +13°C° 0 mm 2 mps 729 mmHg 59%
    14:00 +12°C° 0 mm 3 mps 729 mmHg 56%
    15:00 +12°C° 0 mm 3 mps 728 mmHg 53%
    16:00 +11°C° 0 mm 3 mps 729 mmHg 59%
    17:00 +10°C° 0 mm 3 mps 729 mmHg 64%
    18:00 +9°C° 0 mm 2 mps 729 mmHg 69%
    19:00 +8°C° 0 mm 2 mps 729 mmHg 72%
    20:00 +9°C° 0 mm 1 mps 730 mmHg 75%
    21:00 +8°C° 0 mm 1 mps 730 mmHg 78%
    22:00 +8°C° 0 mm 1 mps 730 mmHg 79%
    23:00 +8°C° 0 mm 1 mps 730 mmHg 80%

    21 December, Thursday

    Time Temperature Precipitation Wind Pressure Humidity
    00:00 +8°C° 0 mm 1 mps 730 mmHg 81%
    01:00 +8°C° 0 mm 1 mps 730 mmHg 81%
    02:00 +8°C° 0 mm 1 mps 730 mmHg 81%
    03:00 +8°C° 0 mm 1 mps 730 mmHg 81%
    04:00 +8°C° 0 mm 1 mps 730 mmHg 81%
    05:00 +8°C° 0 mm 1 mps 730 mmHg 81%
    06:00 +8°C° 0 mm 1 mps 730 mmHg 82%
    07:00 +9°C° 0 mm 1 mps 731 mmHg 80%
    08:00 +9°C° 0 mm 1 mps 731 mmHg 77%
    09:00 +10°C° 0 mm 1 mps 732 mmHg 75%
    10:00 +10°C° 0.1 mm 2 mps 732 mmHg 73%
    11:00 +10°C° 0.1 mm 3 mps 732 mmHg 71%
    12:00 +11°C° 0.1 mm 3 mps 732 mmHg 69%
    13:00 +11°C° 0.1 mm 4 mps 732 mmHg 68%
    14:00 +11°C° 0.1 mm 4 mps 732 mmHg 68%
    15:00 +11°C° 0.1 mm 4 mps 732 mmHg 68%
    16:00 +10°C° 0 mm 4 mps 732 mmHg 71%
    17:00 +10°C° 0 mm 3 mps 732 mmHg 75%
    18:00 +9°C° 0 mm 3 mps 733 mmHg 79%
    19:00 +8°C° 0 mm 2 mps 733 mmHg 82%
    20:00 +8°C° 0 mm 2 mps 733 mmHg 84%
    21:00 +8°C° 0 mm 1 mps 734 mmHg 87%
    22:00 +8°C° 0 mm 1 mps 734 mmHg 87%
    23:00 +8°C° 0 mm 1 mps 734 mmHg 88%

    22 December, Friday

    Time Temperature Precipitation Wind Pressure Humidity
    00:00 +8°C° 0 mm 1 mps 734 mmHg 89%
    01:00 +8°C° 0 mm 1 mps 733 mmHg 88%
    02:00 +8°C° 0 mm 1 mps 733 mmHg 88%
    03:00 +8°C° 0 mm 1 mps 733 mmHg 87%
    04:00 +8°C° 0 mm 1 mps 733 mmHg 87%
    05:00 +8°C° 0 mm 1 mps 733 mmHg 88%
    06:00 +8°C° 0 mm 1 mps 733 mmHg 88%
    07:00 +9°C° 0 mm 1 mps 733 mmHg 84%
    08:00 +10°C° 0 mm 1 mps 734 mmHg 81%
    09:00 +10°C° 0 mm 1 mps 734 mmHg 77%
    10:00 +11°C° 0 mm 1 mps 734 mmHg 73%
    11:00 +12°C° 0 mm 1 mps 734 mmHg 68%
    12:00 +12°C° 0 mm 1 mps 733 mmHg 64%
    13:00 +13°C° 0 mm 1 mps 733 mmHg 63%
    14:00 +13°C° 0 mm 2 mps 732 mmHg 63%
    15:00 +13°C° 0 mm 2 mps 732 mmHg 62%
    16:00 +12°C° 0 mm 1 mps 732 mmHg 68%
    17:00 +11°C° 0 mm 1 mps 732 mmHg 74%
    18:00 +10°C° 0 mm 1 mps 732 mmHg 80%
    19:00 +10°C° 0 mm 1 mps 732 mmHg 82%
    20:00 +8°C° 0 mm 0 mps 732 mmHg 85%
    21:00 +8°C° 0 mm 0 mps 732 mmHg 87%
    22:00 +8°C° 0 mm 0 mps 731 mmHg 87%
    23:00 +7°C° 0 mm 0 mps 731 mmHg 87%

    23 December, Saturday

    Time Temperature Precipitation Wind Pressure Humidity
    00:00 +8°C° 0 mm 1 mps 731 mmHg 87%
    01:00 +8°C° 0 mm 1 mps 731 mmHg 86%
    02:00 +8°C° 0 mm 1 mps 730 mmHg 86%
    03:00 +7°C° 0 mm 1 mps 730 mmHg 86%
    04:00 +7°C° 0 mm 1 mps 730 mmHg 85%
    05:00 +7°C° 0 mm 1 mps 730 mmHg 85%
    06:00 +7°C° 0 mm 1 mps 730 mmHg 84%
    07:00 +8°C° 0 mm 1 mps 730 mmHg 76%
    08:00 +10°C° 0 mm 1 mps 730 mmHg 68%
    09:00 +11°C° 0 mm 1 mps 731 mmHg 60%
    10:00 +12°C° 0 mm 1 mps 730 mmHg 55%
    11:00 +13°C° 0 mm 0 mps 730 mmHg 50%
    12:00 +14°C° 0 mm 0 mps 730 mmHg 46%
    13:00 +15°C° 0 mm 1 mps 730 mmHg 45%
    14:00 +15°C° 0 mm 1 mps 729 mmHg 44%
    15:00 +16°C° 0 mm 2 mps 729 mmHg 43%
    16:00 +14°C° 0 mm 2 mps 729 mmHg 49%
    17:00 +13°C° 0 mm 2 mps 729 mmHg 55%
    18:00 +12°C° 0 mm 2 mps 729 mmHg 61%
    19:00 +11°C° 0 mm 1 mps 729 mmHg 63%
    20:00 +11°C° 0 mm 1 mps 729 mmHg 65%
    21:00 +10°C° 0 mm 1 mps 729 mmHg 66%
    22:00 +10°C° 0 mm 1 mps 729 mmHg 66%
    23:00 +10°C° 0 mm 1 mps 729 mmHg 66%
    Show more